Tiempo cada hora Bolshie Selischi

Hoy, 31 Julio, Sábado

Tiempo Temperatura Precipitaciones Viento Presión Humedad
00:00 +17°C° 0.1 mm 2 mps 740 mmHg 87%
01:00 +16°C° 0.1 mm 2 mps 740 mmHg 90%
02:00 +15°C° 0.1 mm 2 mps 740 mmHg 92%
03:00 +15°C° 0 mm 2 mps 740 mmHg 91%
04:00 +14°C° 0 mm 3 mps 740 mmHg 90%
05:00 +14°C° 0 mm 3 mps 740 mmHg 89%
06:00 +17°C° 0 mm 4 mps 740 mmHg 77%
07:00 +20°C° 0 mm 4 mps 740 mmHg 66%
08:00 +22°C° 0 mm 5 mps 740 mmHg 54%
09:00 +23°C° 0 mm 6 mps 740 mmHg 48%
10:00 +24°C° 0 mm 6 mps 740 mmHg 43%
11:00 +26°C° 0 mm 7 mps 740 mmHg 37%
12:00 +26°C° 0 mm 7 mps 740 mmHg 38%
13:00 +26°C° 0 mm 6 mps 741 mmHg 39%
14:00 +27°C° 0 mm 6 mps 741 mmHg 41%
15:00 +26°C° 0 mm 6 mps 741 mmHg 44%
16:00 +25°C° 0 mm 5 mps 741 mmHg 47%
17:00 +23°C° 0 mm 5 mps 741 mmHg 51%
18:00 +22°C° 0 mm 4 mps 742 mmHg 57%
19:00 +20°C° 0 mm 3 mps 742 mmHg 64%
20:00 +19°C° 0 mm 2 mps 742 mmHg 71%
21:00 +18°C° 0 mm 2 mps 743 mmHg 75%
22:00 +17°C° 0 mm 2 mps 743 mmHg 79%
23:00 +16°C° 0 mm 2 mps 743 mmHg 83%

Mañana, 1 Agosto, Domingo

Tiempo Temperatura Precipitaciones Viento Presión Humedad
00:00 +16°C° 0 mm 2 mps 743 mmHg 84%
01:00 +16°C° 0 mm 2 mps 744 mmHg 84%
02:00 +16°C° 0 mm 2 mps 744 mmHg 85%
03:00 +16°C° 0 mm 2 mps 744 mmHg 83%
04:00 +16°C° 0 mm 2 mps 744 mmHg 81%
05:00 +17°C° 0 mm 2 mps 744 mmHg 79%
06:00 +18°C° 0 mm 2 mps 744 mmHg 74%
07:00 +20°C° 0 mm 3 mps 744 mmHg 68%
08:00 +21°C° 0 mm 3 mps 744 mmHg 62%
09:00 +20°C° 1.1 mm 3 mps 745 mmHg 73%
10:00 +19°C° 1.1 mm 2 mps 745 mmHg 85%
11:00 +18°C° 1.1 mm 2 mps 745 mmHg 96%
12:00 +18°C° 0.5 mm 3 mps 744 mmHg 93%
13:00 +19°C° 0.5 mm 3 mps 744 mmHg 89%
14:00 +20°C° 0.5 mm 4 mps 744 mmHg 86%
15:00 +22°C° 0 mm 4 mps 744 mmHg 80%
16:00 +23°C° 0 mm 4 mps 744 mmHg 75%
17:00 +25°C° 0 mm 4 mps 743 mmHg 69%
18:00 +22°C° 0 mm 3 mps 743 mmHg 76%
19:00 +21°C° 0 mm 3 mps 744 mmHg 84%
20:00 +19°C° 0 mm 2 mps 744 mmHg 91%
21:00 +19°C° 0 mm 2 mps 744 mmHg 93%
22:00 +18°C° 0 mm 2 mps 744 mmHg 94%
23:00 +18°C° 0 mm 2 mps 744 mmHg 95%

Pasado mañana, 2 Agosto, Lunes

Tiempo Temperatura Precipitaciones Viento Presión Humedad
00:00 +17°C° 0 mm 2 mps 744 mmHg 94%
01:00 +17°C° 0 mm 2 mps 744 mmHg 93%
02:00 +16°C° 0 mm 2 mps 744 mmHg 92%
03:00 +17°C° 0 mm 2 mps 744 mmHg 91%
04:00 +17°C° 0 mm 2 mps 744 mmHg 90%
05:00 +18°C° 0 mm 1 mps 744 mmHg 88%
06:00 +19°C° 0 mm 2 mps 744 mmHg 79%
07:00 +21°C° 0 mm 2 mps 744 mmHg 70%
08:00 +25°C° 0 mm 2 mps 744 mmHg 61%
09:00 +26°C° 0 mm 2 mps 743 mmHg 56%
10:00 +28°C° 0 mm 3 mps 743 mmHg 51%
11:00 +29°C° 0 mm 3 mps 742 mmHg 46%
12:00 +29°C° 0 mm 3 mps 742 mmHg 48%
13:00 +29°C° 0 mm 3 mps 741 mmHg 50%
14:00 +29°C° 0 mm 4 mps 740 mmHg 52%
15:00 +28°C° 0.5 mm 3 mps 740 mmHg 61%
16:00 +26°C° 0.5 mm 3 mps 739 mmHg 71%
17:00 +25°C° 0.5 mm 2 mps 739 mmHg 80%
18:00 +22°C° 0.6 mm 3 mps 739 mmHg 84%
19:00 +21°C° 0.6 mm 3 mps 738 mmHg 87%
20:00 +19°C° 0.6 mm 3 mps 738 mmHg 91%
21:00 +19°C° 0.7 mm 3 mps 738 mmHg 92%
22:00 +19°C° 0.7 mm 3 mps 738 mmHg 94%
23:00 +19°C° 0.7 mm 3 mps 738 mmHg 95%

3 Agosto, Martes

Tiempo Temperatura Precipitaciones Viento Presión Humedad
00:00 +18°C° 0.2 mm 3 mps 738 mmHg 95%
01:00 +18°C° 0.2 mm 3 mps 738 mmHg 96%
02:00 +17°C° 0.2 mm 3 mps 738 mmHg 96%
03:00 +17°C° 1 mm 3 mps 739 mmHg 96%
04:00 +17°C° 1 mm 2 mps 739 mmHg 96%
05:00 +17°C° 1 mm 2 mps 739 mmHg 96%
06:00 +17°C° 0.4 mm 2 mps 740 mmHg 93%
07:00 +17°C° 0.4 mm 3 mps 740 mmHg 91%
08:00 +18°C° 0.4 mm 3 mps 740 mmHg 88%
09:00 +18°C° 0.2 mm 3 mps 741 mmHg 87%
10:00 +18°C° 0.2 mm 3 mps 741 mmHg 85%
11:00 +18°C° 0.2 mm 4 mps 742 mmHg 84%
12:00 +18°C° 0.1 mm 3 mps 742 mmHg 84%
13:00 +18°C° 0.1 mm 3 mps 742 mmHg 84%
14:00 +17°C° 0.1 mm 3 mps 743 mmHg 84%
15:00 +18°C° 0.1 mm 3 mps 743 mmHg 79%
16:00 +19°C° 0.1 mm 3 mps 743 mmHg 74%
17:00 +20°C° 0.1 mm 3 mps 743 mmHg 70%
18:00 +19°C° 0.2 mm 3 mps 743 mmHg 76%
19:00 +17°C° 0.2 mm 3 mps 744 mmHg 83%
20:00 +15°C° 0.2 mm 2 mps 744 mmHg 89%
21:00 +15°C° 0 mm 2 mps 744 mmHg 91%
22:00 +14°C° 0 mm 2 mps 745 mmHg 92%
23:00 +14°C° 0 mm 2 mps 745 mmHg 94%

4 Agosto, Miércoles

Tiempo Temperatura Precipitaciones Viento Presión Humedad
00:00 +13°C° 0 mm 2 mps 745 mmHg 94%
01:00 +13°C° 0 mm 2 mps 746 mmHg 95%
02:00 +12°C° 0 mm 2 mps 746 mmHg 95%
03:00 +13°C° 0 mm 2 mps 746 mmHg 95%
04:00 +13°C° 0 mm 2 mps 747 mmHg 95%
05:00 +13°C° 0 mm 2 mps 747 mmHg 95%
06:00 +14°C° 0 mm 2 mps 748 mmHg 86%
07:00 +16°C° 0 mm 2 mps 748 mmHg 77%
08:00 +18°C° 0 mm 2 mps 748 mmHg 68%
09:00 +19°C° 0 mm 2 mps 748 mmHg 59%
10:00 +21°C° 0 mm 3 mps 749 mmHg 51%
11:00 +22°C° 0 mm 3 mps 749 mmHg 42%
12:00 +24°C° 0 mm 3 mps 749 mmHg 39%
13:00 +24°C° 0 mm 3 mps 749 mmHg 36%
14:00 +25°C° 0 mm 3 mps 749 mmHg 34%
15:00 +24°C° 0 mm 2 mps 749 mmHg 36%
16:00 +24°C° 0 mm 2 mps 749 mmHg 38%
17:00 +24°C° 0 mm 2 mps 749 mmHg 41%
18:00 +21°C° 0 mm 2 mps 750 mmHg 47%
19:00 +20°C° 0 mm 1 mps 750 mmHg 53%
20:00 +18°C° 0 mm 1 mps 750 mmHg 59%
21:00 +16°C° 0 mm 1 mps 750 mmHg 61%
22:00 +15°C° 0 mm 1 mps 750 mmHg 63%
23:00 +15°C° 0 mm 1 mps 751 mmHg 65%

5 Agosto, Jueves

Tiempo Temperatura Precipitaciones Viento Presión Humedad
00:00 +14°C° 0 mm 1 mps 751 mmHg 68%
01:00 +13°C° 0 mm 1 mps 751 mmHg 70%
02:00 +13°C° 0 mm 1 mps 751 mmHg 72%
03:00 +13°C° 0 mm 1 mps 751 mmHg 73%
04:00 +13°C° 0 mm 1 mps 751 mmHg 74%
05:00 +13°C° 0 mm 1 mps 751 mmHg 75%
06:00 +15°C° 0 mm 1 mps 751 mmHg 67%
07:00 +18°C° 0 mm 2 mps 751 mmHg 59%
08:00 +20°C° 0 mm 2 mps 751 mmHg 52%
09:00 +21°C° 0 mm 2 mps 751 mmHg 47%
10:00 +24°C° 0 mm 3 mps 751 mmHg 42%
11:00 +25°C° 0 mm 3 mps 751 mmHg 37%
12:00 +25°C° 0 mm 3 mps 751 mmHg 36%
13:00 +26°C° 0 mm 3 mps 751 mmHg 35%
14:00 +26°C° 0 mm 3 mps 750 mmHg 34%
15:00 +25°C° 0 mm 3 mps 750 mmHg 39%
16:00 +24°C° 0 mm 3 mps 750 mmHg 45%
17:00 +22°C° 0 mm 3 mps 750 mmHg 50%
18:00 +21°C° 0 mm 4 mps 750 mmHg 54%
19:00 +20°C° 0 mm 4 mps 749 mmHg 57%
20:00 +19°C° 0 mm 4 mps 749 mmHg 60%
21:00 +18°C° 0.2 mm 3 mps 749 mmHg 68%
22:00 +17°C° 0.2 mm 3 mps 749 mmHg 76%
23:00 +16°C° 0.2 mm 3 mps 750 mmHg 84%
Mostrar más